[[{"header":{"parameterUnit":"m.s-1","parameterCategory":1,"la1":30.2991,"la2":30.254,"lo1":-89.0895,"lo2":-89.0444,"dy":0.0017,"dx":0.0017,"nx":28,"ny":28,"refTime":"2024-12-04T03:00:00:Z","depth":0,"parameterNumber":2,"parameterNumberName":"U-component_of_WINDS"},"data":[0,0,0,0,0,0,0,0,0,0,0,0,0,0,0,0,0,0,0,0,0,0,0,0,0,0,0,0,0,0,0,0,0,0,0,0,0,0,0,0,0,0,0,0,0,0,0,0,0,0,0,0,0,0,0,0,0,0,-0.0512,-0.0512,0,-0.0509,-0.0509,-0.0509,-0.0498,-0.0498,-0.0497,-0.0497,-0.0496,-0.0496,-0.0496,0,0,0,0,0,0,0,0,0,0,0,0,0,-0.0506,-0.0506,-0.0512,-0.0512,-0.0511,-0.0509,-0.0509,-0.0509,-0.0498,-0.0498,-0.0497,-0.0497,-0.0496,-0.0496,-0.0496,0,0,0,0,0,0,0,0,0,0,0,0,0,-0.0507,-0.0506,-0.0512,-0.0506,-0.0505,-0.0509,-0.0509,-0.0509,-0.0498,-0.0498,-0.0497,-0.0497,-0.0496,-0.0496,-0.0496,-0.0507,0,0,-0.0497,-0.0498,0,0,0,0,0,0,0,0,-0.0507,-0.0507,-0.0506,-0.0506,-0.0505,-0.0503,-0.0507,-0.0508,-0.0498,-0.0501,-0.0497,-0.0497,-0.0499,-0.0499,-0.0499,-0.0507,-0.0507,-0.0497,-0.0498,-0.0498,-0.0498,0,0,0,0,0,0,0,-0.0507,-0.0507,-0.0511,-0.0506,-0.0506,-0.0503,-0.0503,-0.0507,-0.0502,-0.05,-0.05,-0.0499,-0.0498,-0.0499,-0.0499,-0.0507,-0.0497,-0.0498,-0.0498,-0.0498,-0.052,-0.0521,0,0,0,0,0,0,-0.0507,-0.0507,-0.0511,-0.0511,-0.0505,-0.0503,-0.0503,-0.0504,-0.0502,-0.0501,-0.05,-0.0499,-0.0499,-0.0499,-0.0499,-0.051,-0.0498,-0.0498,-0.0498,-0.052,-0.052,-0.0521,0,0,0,0,0,0,-0.0507,-0.0508,-0.0511,-0.0509,-0.0509,-0.0504,-0.0506,-0.0505,-0.0505,-0.0501,-0.0501,-0.0501,-0.0498,-0.0499,-0.0504,-0.051,-0.0498,-0.0499,-0.052,-0.052,-0.0521,-0.0533,0,0,0,0,0,0,-0.0507,-0.0508,-0.0512,-0.0509,-0.0509,-0.0516,-0.0506,-0.0505,-0.0506,-0.0505,-0.0503,-0.0502,-0.0498,-0.0504,-0.0505,-0.051,-0.0499,-0.0519,-0.052,-0.0521,-0.0532,-0.0534,-0.0535,0,0,0,0,0,-0.0507,-0.0516,-0.0512,-0.0513,-0.0514,-0.0517,-0.0517,-0.0512,-0.0506,-0.051,-0.0507,-0.0502,-0.0509,-0.0505,-0.0505,-0.0511,-0.0519,-0.052,-0.052,-0.0531,-0.0533,-0.0535,0,0,0,0,0,0,-0.0521,-0.0516,-0.0511,-0.0519,-0.0518,-0.0515,-0.052,-0.0514,-0.0515,-0.0514,-0.0508,-0.0508,-0.0514,-0.0513,-0.0508,-0.052,-0.0513,-0.0514,-0.0521,-0.0523,-0.0525,-0.0525,-0.0499,0,0,0,0,0,-0.0525,-0.0527,-0.0523,-0.053,-0.053,-0.0525,-0.0526,-0.0522,-0.0521,-0.052,-0.0518,-0.0518,-0.0519,-0.0521,-0.0523,-0.0531,-0.053,-0.0536,-0.0537,-0.0539,-0.054,-0.0543,-0.0545,-0.0524,-0.0524,-0.0524,0,0,-0.0533,-0.053,-0.0533,-0.0533,-0.0532,-0.0534,-0.0525,-0.0528,-0.053,-0.0521,-0.0526,-0.0524,-0.0523,-0.053,-0.0533,-0.0529,-0.0545,-0.054,-0.0541,-0.0541,-0.0544,-0.0546,-0.0548,-0.0524,-0.0524,-0.0524,0,0,-0.055,-0.0548,-0.0554,-0.0552,-0.055,-0.0546,-0.0548,-0.0544,-0.0542,-0.0547,-0.054,-0.0542,-0.0546,-0.0545,-0.0545,-0.0559,-0.0554,-0.0559,-0.0569,-0.0572,-0.0574,-0.0575,-0.058,-0.0581,-0.0561,-0.0561,-0.0561,0,-0.056,-0.0564,-0.0557,-0.0561,-0.0561,-0.0552,-0.0557,-0.0556,-0.0555,-0.0555,-0.0551,-0.0554,-0.0553,-0.0559,-0.0562,-0.0562,-0.0563,-0.056,-0.0574,-0.0575,-0.0577,-0.0581,-0.0583,-0.0561,-0.0561,-0.0561,-0.0561,0,-0.0577,-0.058,-0.0584,-0.0582,-0.0583,-0.0588,-0.0581,-0.0582,-0.0578,-0.0574,-0.0578,-0.0576,-0.0577,-0.0578,-0.0574,-0.0583,-0.058,-0.0575,-0.0568,-0.0579,-0.0583,-0.0585,-0.0562,-0.0562,-0.0562,-0.0562,0,0,-0.0604,-0.0597,-0.0599,-0.0597,-0.0593,-0.0595,-0.0598,-0.0598,-0.0599,-0.0598,-0.0601,-0.0603,-0.0597,-0.0597,-0.0593,-0.0596,-0.0606,-0.059,-0.059,-0.0593,-0.0615,-0.0619,-0.0621,-0.0602,-0.0603,-0.0603,-0.0615,0,-0.0619,-0.0625,-0.0618,-0.0626,-0.0627,-0.0618,-0.0621,-0.0618,-0.0615,-0.0616,-0.0612,-0.0613,-0.0606,-0.0606,-0.0608,-0.0604,-0.0611,-0.0603,-0.0605,-0.0605,-0.0606,-0.0623,-0.0628,-0.064,-0.0617,-0.0617,-0.0617,0,-0.0639,-0.0638,-0.0645,-0.0639,-0.0639,-0.0642,-0.0641,-0.0642,-0.0638,-0.0635,-0.0634,-0.0628,-0.0631,-0.0623,-0.0627,-0.0622,-0.0622,-0.062,-0.062,-0.062,-0.0612,-0.0624,-0.0644,-0.0645,-0.0619,-0.0619,-0.0619,0,-0.0657,-0.0657,-0.0661,-0.066,-0.0654,-0.0656,-0.0653,-0.0649,-0.0649,-0.0648,-0.0647,-0.0646,-0.0646,-0.0645,-0.0639,-0.0634,-0.0642,-0.0634,-0.064,-0.064,-0.0643,-0.0643,-0.0663,-0.0642,-0.0642,-0.0642,-0.0642,0,-0.0676,-0.068,-0.0669,-0.0672,-0.0676,-0.0668,-0.0673,-0.0669,-0.0665,-0.0667,-0.0658,-0.066,-0.0651,-0.0651,-0.0646,-0.0649,-0.0649,-0.0647,-0.0646,-0.0648,-0.0648,-0.0648,-0.0647,-0.0643,-0.0643,-0.0643,-0.0643,0,-0.0697,-0.069,-0.0694,-0.0687,-0.0685,-0.0688,-0.0682,-0.0684,-0.0679,-0.0681,-0.0681,-0.0673,-0.0673,-0.0666,-0.0665,-0.0661,-0.0666,-0.0663,-0.0667,-0.0666,-0.0672,-0.0672,-0.0693,-0.0695,-0.0673,-0.0674,-0.0674,0,-0.071,-0.0713,-0.0706,-0.0705,-0.0703,-0.0703,-0.0702,-0.0694,-0.0693,-0.0689,-0.0691,-0.069,-0.0689,-0.0688,-0.0683,-0.0681,-0.0678,-0.0686,-0.0678,-0.068,-0.0678,-0.0678,-0.0678,-0.0688,-0.0688,-0.0688,-0.0688,0,-0.0732,-0.0728,-0.0727,-0.0725,-0.0724,-0.0721,-0.0719,-0.0719,-0.0709,-0.0709,-0.0708,-0.0707,-0.0705,-0.0704,-0.0701,-0.0698,-0.0691,-0.069,-0.0692,-0.0694,-0.0696,-0.0695,-0.0672,-0.069,-0.069,-0.069,-0.069,-0.069,-0.075,-0.0752,-0.0746,-0.0745,-0.0742,-0.0739,-0.074,-0.0734,-0.0733,-0.073,-0.0725,-0.0725,-0.072,-0.0715,-0.0713,-0.0712,-0.0708,-0.071,-0.0711,-0.0711,-0.0712,-0.0696,-0.0712,-0.0712,-0.0712,-0.0711,-0.0711,0,-0.0772,-0.0767,-0.0766,-0.0762,-0.0761,-0.0754,-0.075,-0.0749,-0.0749,-0.0745,-0.0743,-0.0741,-0.074,-0.0733,-0.073,-0.0731,-0.0728,-0.0731,-0.0731,-0.073,-0.0716,-0.0715,-0.0733,-0.0733,-0.0733,-0.0733,-0.0733,-0.0733,-0.0783,-0.0785,-0.078,-0.078,-0.0776,-0.0775,-0.0773,-0.077,-0.0767,-0.0765,-0.0763,-0.0759,-0.0753,-0.075,-0.0748,-0.0746,-0.0745,-0.0749,-0.0746,-0.0733,-0.0731,-0.0729,-0.0728,-0.0749,-0.0749,-0.076,-0.076,-0.076]},{"header":{"parameterUnit":"m.s-1","parameterCategory":1,"la1":30.2991,"la2":30.254,"lo1":-89.0895,"lo2":-89.0444,"dy":0.0017,"dx":0.0017,"nx":28,"ny":28,"refTime":"2024-12-04T03:00:00:Z","depth":0,"parameterNumber":3,"parameterNumberName":"V-component_of_WINDS"},"data":[0,0,0,0,0,0,0,0,0,0,0,0,0,0,0,0,0,0,0,0,0,0,0,0,0,0,0,0,0,0,0,0,0,0,0,0,0,0,0,0,0,0,0,0,0,0,0,0,0,0,0,0,0,0,0,0,0,0,-7.2683,-7.2684,0,-7.2758,-7.2759,-7.276,-7.268,-7.2677,-7.2674,-7.2671,-7.2742,-7.2746,-7.2751,0,0,0,0,0,0,0,0,0,0,0,0,0,-7.2467,-7.2472,-7.2683,-7.2684,-7.2685,-7.2758,-7.2759,-7.276,-7.2681,-7.2677,-7.2673,-7.267,-7.274,-7.2746,-7.2752,0,0,0,0,0,0,0,0,0,0,0,0,0,-7.2553,-7.2473,-7.2683,-7.2655,-7.2653,-7.2758,-7.2759,-7.276,-7.2681,-7.2677,-7.2672,-7.2668,-7.2738,-7.2745,-7.2752,-7.2887,0,0,-7.2774,-7.2777,0,0,0,0,0,0,0,0,-7.2549,-7.2561,-7.2658,-7.2657,-7.2655,-7.2705,-7.2709,-7.2803,-7.2682,-7.267,-7.2671,-7.2666,-7.2733,-7.274,-7.2764,-7.2891,-7.2894,-7.2775,-7.2779,-7.2782,-7.2784,0,0,0,0,0,0,0,-7.2543,-7.2558,-7.2713,-7.2659,-7.2658,-7.2636,-7.2644,-7.2726,-7.2726,-7.2671,-7.2665,-7.2676,-7.2731,-7.2757,-7.2765,-7.2895,-7.2774,-7.2781,-7.2785,-7.2788,-7.3137,-7.3142,0,0,0,0,0,0,-7.2541,-7.2553,-7.271,-7.2715,-7.259,-7.2644,-7.2652,-7.2693,-7.2725,-7.2726,-7.2679,-7.2672,-7.2748,-7.2757,-7.2767,-7.2928,-7.2782,-7.2788,-7.2793,-7.3132,-7.3138,-7.3143,0,0,0,0,0,0,-7.2536,-7.2555,-7.2707,-7.2633,-7.265,-7.2653,-7.27,-7.2697,-7.2724,-7.2732,-7.2731,-7.2707,-7.2744,-7.2757,-7.2859,-7.293,-7.2792,-7.2798,-7.3126,-7.3134,-7.3141,-7.3251,0,0,0,0,0,0,-7.2531,-7.2554,-7.2607,-7.2635,-7.2655,-7.2799,-7.2704,-7.2702,-7.2737,-7.2727,-7.2757,-7.2757,-7.2742,-7.2849,-7.2866,-7.2937,-7.2804,-7.312,-7.3129,-7.3138,-7.3241,-7.3262,-7.3279,0,0,0,0,0,-7.2523,-7.2633,-7.261,-7.2629,-7.2721,-7.2803,-7.2815,-7.2796,-7.2743,-7.2795,-7.28,-7.2756,-7.2919,-7.286,-7.2878,-7.2953,-7.3115,-7.3127,-7.3138,-7.3233,-7.3258,-7.3279,0,0,0,0,0,0,-7.2611,-7.2636,-7.2611,-7.2733,-7.2767,-7.279,-7.2855,-7.2823,-7.2871,-7.286,-7.2833,-7.2841,-7.2949,-7.296,-7.2894,-7.3085,-7.3008,-7.3024,-7.3074,-7.3098,-7.3116,-7.3111,-7.281,0,0,0,0,0,-7.2646,-7.2713,-7.273,-7.2837,-7.2855,-7.2853,-7.2888,-7.2871,-7.2904,-7.2917,-7.293,-7.2962,-7.3021,-7.306,-7.3114,-7.3243,-7.3248,-7.3303,-7.3322,-7.3337,-7.3351,-7.3421,-7.3445,-7.3181,-7.318,-7.318,0,0,-7.2716,-7.2738,-7.2781,-7.2855,-7.2879,-7.2948,-7.2865,-7.2941,-7.2991,-7.2928,-7.3026,-7.3036,-7.307,-7.3187,-7.3238,-7.32,-7.3425,-7.3352,-7.3364,-7.3369,-7.3435,-7.346,-7.3482,-7.3188,-7.3187,-7.3186,0,0,-7.288,-7.2903,-7.2995,-7.3022,-7.3061,-7.3059,-7.3081,-7.3109,-7.3115,-7.3212,-7.3167,-7.3226,-7.3327,-7.3354,-7.338,-7.3557,-7.3518,-7.3575,-7.3673,-7.3742,-7.3762,-7.3781,-7.3844,-7.3867,-7.3588,-7.3589,-7.3589,0,-7.2962,-7.3066,-7.3046,-7.3127,-7.316,-7.3109,-7.3202,-7.3228,-7.3281,-7.3305,-7.3262,-7.3389,-7.3408,-7.353,-7.3574,-7.3597,-7.3621,-7.3571,-7.3761,-7.378,-7.3796,-7.3857,-7.388,-7.3595,-7.3595,-7.3594,-7.3593,0,-7.3165,-7.3238,-7.3307,-7.3363,-7.3405,-7.3491,-7.3483,-7.3527,-7.3507,-7.3509,-7.361,-7.3631,-7.369,-7.3717,-7.3697,-7.3837,-7.3812,-7.3766,-7.3687,-7.3829,-7.3885,-7.3908,-7.3605,-7.3602,-7.36,-7.3599,0,0,-7.3385,-7.3432,-7.3457,-7.3483,-7.3523,-7.3578,-7.3661,-7.372,-7.3759,-7.3798,-7.3867,-7.3955,-7.3912,-7.3943,-7.3926,-7.3986,-7.4125,-7.3931,-7.3932,-7.3967,-7.4281,-7.4316,-7.4343,-7.41,-7.4104,-7.4107,-7.4278,0,-7.355,-7.3698,-7.3684,-7.3823,-7.389,-7.3843,-7.3916,-7.3948,-7.3952,-7.4008,-7.4012,-7.4075,-7.4014,-7.4033,-7.409,-7.4096,-7.4187,-7.4083,-7.4163,-7.4166,-7.4156,-7.4372,-7.4409,-7.4569,-7.43,-7.4303,-7.4306,0,-7.3763,-7.3813,-7.396,-7.3991,-7.4018,-7.4084,-7.4138,-7.4193,-7.4228,-7.4227,-7.4262,-7.4235,-7.4318,-7.4238,-7.4352,-7.4282,-7.4313,-7.4321,-7.4327,-7.4333,-7.4245,-7.4385,-7.462,-7.4644,-7.434,-7.4337,-7.4335,0,-7.391,-7.4013,-7.4115,-7.4138,-7.4177,-7.4224,-7.4242,-7.4273,-7.431,-7.4356,-7.438,-7.4435,-7.4465,-7.4507,-7.4495,-7.4438,-7.4612,-7.4531,-7.4612,-7.4613,-7.4651,-7.4649,-7.4895,-7.4671,-7.4671,-7.467,-7.467,0,-7.4096,-7.4188,-7.4182,-7.4244,-7.4346,-7.4328,-7.4428,-7.444,-7.4468,-7.4531,-7.4493,-7.4552,-7.4533,-7.4591,-7.4582,-7.4678,-7.4691,-7.4692,-7.4688,-7.4696,-7.4696,-7.4716,-7.4705,-7.4677,-7.4675,-7.4674,-7.4673,0,-7.4277,-7.4277,-7.4385,-7.4414,-7.4423,-7.4497,-7.4521,-7.4579,-7.4581,-7.4662,-7.4679,-7.4682,-7.4749,-7.4741,-7.4815,-7.4809,-7.4928,-7.4911,-7.4917,-7.4914,-7.4996,-7.4989,-7.5264,-7.5299,-7.5053,-7.5055,-7.5057,0,-7.4396,-7.4466,-7.4504,-7.4545,-7.4567,-7.4633,-7.4671,-7.4657,-7.4698,-7.4744,-7.4797,-7.4861,-7.4911,-7.502,-7.5027,-7.5084,-7.5068,-7.516,-7.5076,-7.5082,-7.507,-7.5066,-7.5073,-7.5177,-7.518,-7.5182,-7.5184,0,-7.4608,-7.4605,-7.4663,-7.4723,-7.477,-7.4815,-7.4856,-7.4891,-7.488,-7.4928,-7.4998,-7.5037,-7.5114,-7.5178,-7.5232,-7.5248,-7.5215,-7.5211,-7.5233,-7.5241,-7.5242,-7.5243,-7.4963,-7.5204,-7.5202,-7.5201,-7.52,-7.5199,-7.4762,-7.4823,-7.486,-7.4926,-7.4956,-7.4996,-7.5053,-7.5063,-7.5121,-7.5185,-7.5172,-7.525,-7.5283,-7.5353,-7.5375,-7.5435,-7.5401,-7.5432,-7.5441,-7.5449,-7.5459,-7.5233,-7.5444,-7.5444,-7.5443,-7.5443,-7.5442,0,-7.4972,-7.4994,-7.5056,-7.5116,-7.5168,-7.5135,-7.5178,-7.5224,-7.5294,-7.5329,-7.5381,-7.5461,-7.5523,-7.5536,-7.5595,-7.5641,-7.5627,-7.5657,-7.5653,-7.5658,-7.5485,-7.5461,-7.5667,-7.5667,-7.5667,-7.5667,-7.5667,-7.5667,-7.5088,-7.519,-7.5191,-7.5307,-7.5327,-7.5406,-7.5434,-7.547,-7.5498,-7.5591,-7.5643,-7.5652,-7.5678,-7.574,-7.5795,-7.5797,-7.582,-7.5857,-7.5853,-7.5692,-7.567,-7.5648,-7.5625,-7.5862,-7.5862,-7.602,-7.6022,-7.6023]}]]